Douglas, WY

8:33 AM MDT on April 23, 2017 (GMT -0600)
Converse County

Weather History for KDGW - September, 2013

Change the Weather History Date:

Sunday, September 15, 2013

  Actual Average Record
Temperature  
Mean Temperature 58 °F 59 °F  
Max Temperature 62 °F 75 °F 95 °F (2000)
Min Temperature 54 °F 42 °F 32 °F (1999)
Degree Days  
Heating Degree Days 7 7  
Month to date heating degree days 25 71  
Since 1 July heating degree days 25 112  
Cooling Degree Days 0 1  
Month to date cooling degree days 78 26  
Year to date cooling degree days 729 484  
Growing Degree Days 8 (Base 50)    
Moisture  
Dew Point 51 °F    
Average Humidity 75    
Maximum Humidity 89    
Minimum Humidity 60    
Precipitation  
Precipitation 0.00 in 0.04 in 0.04 in (2001)
Month to date precipitation 0.14 0.57  
Year to date precipitation 6.36 10.62  
Sea Level Pressure  
Sea Level Pressure 30.17 in    
Wind  
Wind Speed 13 mph (SE)    
Max Wind Speed 24 mph    
Max Gust Speed 30 mph    
Visibility 10 miles    
Events      
T = Trace of Precipitation, MM = Missing Value Source: NWS Daily Summary

Daily Weather History Graph

Daily Weather History Graph

Search for Another Location

Airport or City:

Trip Planner

Search our weather history database for the weather conditions in past years. The results will help you decide how hot, cold, wet, or windy it might be!

Date:

Astronomy

Sep. 15, 2013 Rise Set
Actual Time 6:41 AM MDT 7:10 PM MDT
Civil Twilight 6:13 AM MDT 7:39 PM MDT
Nautical Twilight 5:39 AM MDT 8:12 PM MDT
Astronomical Twilight 5:05 AM MDT 8:47 PM MDT
Moon 4:44 PM MDT (9/15) 2:17 AM MDT (9/15)
Length of Visible Light 13h 26m
Length of Day
12h 29m
Waxing Gibbous, 82% of the Moon is Illuminated
Sep 15
Waxing Gibbous
Sep 19
Full
Sep 26
Last Quarter
Oct 4
New
Oct 11
First Quarter

Hourly Weather History & Observations

Time (MDT) Temp. Dew Point Humidity Pressure Visibility Wind Dir Wind Speed Gust Speed Precip Events Conditions
12:53 AM 59.0 °F 55.9 °F 90% 29.99 in 10.0 mi ENE 5.8 mph - N/A   Overcast
1:53 AM 59.0 °F 55.9 °F 90% 30.00 in 10.0 mi ENE 4.6 mph - N/A   Overcast
2:53 AM 59.0 °F 55.0 °F 87% 30.00 in 10.0 mi ESE 5.8 mph - N/A   Overcast
3:53 AM 57.9 °F 54.0 °F 87% 30.01 in 10.0 mi SE 3.5 mph - N/A   Overcast
4:53 AM 57.9 °F 54.0 °F 87% 30.03 in 10.0 mi ESE 5.8 mph - N/A   Overcast
5:53 AM 57.9 °F 54.0 °F 87% 30.07 in 10.0 mi ESE 5.8 mph - N/A   Overcast
6:53 AM 57.9 °F 54.0 °F 87% 30.09 in 10.0 mi ESE 8.1 mph - N/A   Overcast
7:44 AM 57.2 °F 53.6 °F 88% 30.23 in 10.0 mi ESE 12.7 mph - N/A   Overcast
7:53 AM 57.0 °F 53.1 °F 87% 30.12 in 10.0 mi ESE 12.7 mph - N/A   Overcast
8:53 AM 57.0 °F 52.0 °F 83% 30.14 in 10.0 mi East 13.8 mph - N/A   Overcast
9:34 AM 57.2 °F 51.8 °F 82% 30.27 in 10.0 mi ESE 13.8 mph - N/A   Overcast
9:53 AM 55.9 °F 51.1 °F 84% 30.18 in 10.0 mi ESE 15.0 mph - N/A   Overcast
10:53 AM 55.9 °F 50.0 °F 80% 30.19 in 10.0 mi ESE 12.7 mph - N/A   Overcast
11:53 AM 55.9 °F 50.0 °F 80% 30.21 in 10.0 mi ESE 16.1 mph - N/A   Overcast
12:18 PM 57.2 °F 50.0 °F 77% 30.30 in 10.0 mi ESE 16.1 mph 21.9 mph N/A   Overcast
12:53 PM 60.1 °F 48.9 °F 67% 30.19 in 10.0 mi ESE 13.8 mph - N/A   Overcast
1:53 PM 60.1 °F 48.0 °F 64% 30.19 in 10.0 mi SE 15.0 mph - N/A   Overcast
2:53 PM 60.1 °F 48.0 °F 64% 30.17 in 10.0 mi SE 17.3 mph 23.0 mph N/A   Overcast
3:53 PM 62.1 °F 48.0 °F 60% 30.17 in 10.0 mi SE 13.8 mph - N/A   Overcast
4:53 PM 60.1 °F 48.9 °F 67% 30.18 in 10.0 mi SE 16.1 mph - N/A   Overcast
5:00 PM 60.8 °F 48.2 °F 63% 30.28 in 10.0 mi SE 13.8 mph - N/A   Overcast
5:53 PM 61.0 °F 48.9 °F 64% 30.17 in 10.0 mi SE 17.3 mph 21.9 mph N/A   Overcast
6:03 PM 60.8 °F 48.2 °F 63% 30.28 in 10.0 mi SE 16.1 mph 21.9 mph N/A   Overcast
6:22 PM 60.8 °F 48.2 °F 63% 30.28 in 10.0 mi SSE 13.8 mph - N/A   Overcast
6:53 PM 60.1 °F 50.0 °F 69% 30.16 in 10.0 mi SE 11.5 mph - N/A   Overcast
7:53 PM 59.0 °F 50.0 °F 72% 30.16 in 10.0 mi SE 12.7 mph - N/A   Overcast
8:53 PM 57.9 °F 48.9 °F 72% 30.17 in 10.0 mi SE 13.8 mph - N/A   Overcast
9:53 PM 57.9 °F 50.0 °F 75% 30.17 in 10.0 mi SSE 19.6 mph - N/A   Overcast
10:01 PM 57.2 °F 50.0 °F 77% 30.26 in 10.0 mi SE 19.6 mph 26.5 mph N/A   Overcast
10:35 PM 55.4 °F 50.0 °F 82% 30.26 in 10.0 mi SE 19.6 mph 24.2 mph N/A   Overcast
10:53 PM 55.9 °F 48.9 °F 77% 30.17 in 10.0 mi SE 23.0 mph 26.5 mph N/A   Overcast
11:13 PM 55.4 °F 50.0 °F 82% 30.26 in 10.0 mi SE 19.6 mph 28.8 mph N/A   Overcast
11:35 PM 55.4 °F 50.0 °F 82% 30.25 in 10.0 mi SE 18.4 mph 25.3 mph N/A   Overcast
11:44 PM 55.4 °F 50.0 °F 82% 30.24 in 10.0 mi SE 19.6 mph - N/A   Overcast
11:53 PM 54.0 °F 50.0 °F 86% 30.16 in 10.0 mi SE 20.7 mph 28.8 mph N/A   Overcast